Torna al catalogo

IRIDE-MS2-HEO-8

AttivoScienzaSSO
NORAD 64587·PAYLOAD·🇮🇹 Italy

Lanciato Jun 23, 2025 da Vandenberg Space Force Base

Loading…

Prossimi Passaggi (prossime 24 ore)

TLE

AggiornatoSource: Space-Track

Epoca: Sep 14, 2026, 14:33 UTC

1 64587U 25135BM  26257.60655498  .00001472  00000-0  15094-3 0  9997
2 64587  97.7811  10.9170 0002279  82.6890 277.4588 14.91946374 67233

Traccia IRIDE-MS2-HEO-8 in tempo reale con AllMySat

Download on the App Store